TimeCEST,TemperatureF,Dew PointF,Humidity,Sea Level PressureIn,VisibilityMPH,Wind Direction,Wind SpeedMPH,Gust SpeedMPH,PrecipitationIn,Events,Conditions,WindDirDegrees,DateUTC
2:00 AM,59,50,63,30.14,,NE,11.2,,,,,40,2012-10-01 00:00:00
4:45 AM,59.0,48.2,67,30.12,-9999.0,NNE,9.2,-,N/A,,Clear,30,2012-10-01 02:45:00
5:45 AM,57.2,48.2,72,30.12,-9999.0,NE,10.4,-,N/A,,Clear,40,2012-10-01 03:45:00
6:15 AM,57.2,50.0,77,30.09,-9999.0,ENE,11.5,-,N/A,,Clear,60,2012-10-01 04:15:00
6:45 AM,57.2,50.0,77,30.12,-9999.0,NE,8.1,-,N/A,,Clear,40,2012-10-01 04:45:00
7:00 AM,-9999,-9999,N/A,-9999,-9999.0,ENE,9.2,-,N/A,Rain,Light Rain,60,2012-10-01 05:00:00
7:15 AM,57.2,50.0,77,30.09,-9999.0,NE,10.4,-,N/A,,Clear,50,2012-10-01 05:15:00
7:45 AM,59.0,51.8,77,30.12,-9999.0,NE,6.9,-,N/A,,Clear,50,2012-10-01 05:45:00
8:00 AM,58,51,71,30.11,16,NE,6.7,,,,Partly Cloudy,50,2012-10-01 06:00:00
8:15 AM,59.0,51.8,77,30.09,6.2,NNE,8.1,-,N/A,,Mostly Cloudy,30,2012-10-01 06:15:00
8:45 AM,60.8,53.6,77,30.09,6.2,ENE,10.4,-,N/A,,Mostly Cloudy,70,2012-10-01 06:45:00
9:15 AM,62.6,55.4,77,30.12,6.2,ENE,9.2,-,N/A,,Mostly Cloudy,70,2012-10-01 07:15:00
9:19 AM,62.6,55.4,77,30.12,-9999.0,ENE,6.9,-,N/A,,Unknown,70,2012-10-01 07:19:00
9:45 AM,64.4,57.2,77,30.12,-9999.0,East,5.8,-,N/A,,Clear,90,2012-10-01 07:45:00
10:00 AM,-9999,-9999,N/A,-9999,-9999.0,ENE,9.2,-,N/A,Rain,Light Rain,60,2012-10-01 08:00:00
10:15 AM,66.2,59.0,78,30.12,-9999.0,ENE,8.1,-,N/A,,Clear,70,2012-10-01 08:15:00
10:45 AM,69.8,59.0,68,30.12,-9999.0,ENE,4.6,-,N/A,,Clear,60,2012-10-01 08:45:00
11:15 AM,71.6,60.8,69,30.12,-9999.0,ENE,3.5,-,N/A,,Clear,60,2012-10-01 09:15:00
11:45 AM,73.4,60.8,65,30.09,-9999.0,ENE,3.5,-,N/A,,Clear,70,2012-10-01 09:45:00
12:15 PM,75.2,60.8,61,30.09,-9999.0,ENE,4.6,-,N/A,,Clear,70,2012-10-01 10:15:00
12:45 PM,77.0,60.8,57,30.09,-9999.0,East,4.6,-,N/A,,Clear,90,2012-10-01 10:45:00
1:00 PM,-9999,-9999,N/A,-9999,-9999.0,Variable,3.5,-,N/A,Rain,Light Rain,0,2012-10-01 11:00:00
1:15 PM,80.6,62.6,54,30.09,-9999.0,ENE,2.3,-,N/A,,Clear,70,2012-10-01 11:15:00
1:45 PM,80.6,60.8,51,30.06,-9999.0,SE,2.3,-,N/A,,Clear,130,2012-10-01 11:45:00
2:00 PM,81,60,39,30.05,19,SE,2.2,,,,Partly Cloudy,130,2012-10-01 12:00:00
2:15 PM,80.6,60.8,51,30.06,-9999.0,ESE,3.5,-,N/A,,Clear,110,2012-10-01 12:15:00
2:45 PM,82.4,59.0,45,30.06,-9999.0,South,6.9,-,N/A,,Clear,180,2012-10-01 12:45:00
3:15 PM,82.4,60.8,48,30.06,-9999.0,SSW,6.9,-,N/A,,Clear,200,2012-10-01 13:15:00
3:45 PM,80.6,60.8,51,30.04,-9999.0,SW,4.6,-,N/A,,Clear,220,2012-10-01 13:45:00
4:00 PM,-9999,-9999,N/A,-9999,-9999.0,Variable,3.5,-,N/A,Rain,Light Rain Showers,0,2012-10-01 14:00:00
4:15 PM,80.6,60.8,51,30.04,-9999.0,WSW,2.3,-,N/A,,Clear,250,2012-10-01 14:15:00
4:45 PM,80.6,60.8,51,30.04,6.2,West,1.2,-,N/A,,Mostly Cloudy,260,2012-10-01 14:45:00
5:15 PM,80.6,60.8,51,30.04,-9999.0,West,3.5,-,N/A,,Clear,280,2012-10-01 15:15:00
5:45 PM,78.8,60.8,54,30.04,6.2,WNW,4.6,-,N/A,,Mostly Cloudy,300,2012-10-01 15:45:00
6:15 PM,77.0,60.8,57,30.04,6.2,NNW,4.6,-,N/A,,Mostly Cloudy,340,2012-10-01 16:15:00
6:45 PM,73.4,62.6,69,30.04,-9999.0,NNW,4.6,-,N/A,,Clear,340,2012-10-01 16:45:00
7:15 PM,69.8,62.6,78,30.04,-9999.0,NE,4.6,-,N/A,,Clear,40,2012-10-01 17:15:00
7:45 PM,69.8,62.6,78,30.04,-9999.0,North,3.5,-,N/A,,Clear,350,2012-10-01 17:45:00
8:00 PM,71,63,68,30.02,12,North,2.2,,,,Partly Cloudy,350,2012-10-01 18:00:00
9:00 PM,-9999,-9999,N/A,-9999,-9999.0,North,-9999.0,-,N/A,,Unknown,0,2012-10-01 19:00:00